Terminal Aerodrome Forecast
Issued by NWS Charleston, WV

Current Version | Previous Version | Graphics & Text | Print | Product List | Glossary On
Versions: 1 2 3 4 5 6 7 8 9 10 11 12 13 14 15 16 17 18 19 20 21 22 23 24 25 26
000
FTUS41 KRLX 260540
TAFHTS
TAF
KHTS 260540Z 2606/2706 00000KT P6SM BKN050
     FM261000 VRB03KT P6SM VCTS BKN050CB
     FM261100 VRB03KT P6SM SHRA VCTS OVC040CB
     FM261400 18005KT P6SM BKN050
     FM261900 20008KT P6SM VCTS BKN050CB
     FM262100 20008KT P6SM TSRA BKN040CB
     FM270000 19005KT 6SM SHRA BR VCTS BKN035CB=

USA.gov is the U.S. government's official web portal to all federal, state and local government web resources and services.